| time (UTC) | temp F | wind direction | speed MPH | gust MPH | rain 1hr in | rain 24hr in | rain mn in | humidity % | barometer mb |
| 20260904151516 | 82 | 338 | 2.0 | 4.0 | 0.00 | 0.01 | 0.00 | 81 | 1011.4 |
| 20260904150515 | 82 | 0 | 2.0 | 3.0 | 0.00 | 0.01 | 0.00 | 81 | 1011.3 |
| 20260904145515 | 81 | 0 | 1.0 | 2.0 | 0.00 | 0.01 | 0.00 | 83 | 1011.3 |
| 20260904144515 | 80 | 315 | 2.0 | 4.0 | 0.00 | 0.01 | 0.00 | 83 | 1011.2 |
| 20260904143516 | 80 | 293 | 2.0 | 4.0 | 0.00 | 0.01 | 0.00 | 83 | 1011.2 |
| 20260904142515 | 80 | 248 | 2.0 | 3.0 | 0.00 | 0.01 | 0.00 | 84 | 1011.2 |
| 20260904141516 | 79 | 203 | 1.0 | 3.0 | 0.00 | 0.01 | 0.00 | 85 | 1011.2 |
| 20260904140515 | 79 | 248 | 2.0 | 3.0 | 0.00 | 0.01 | 0.00 | 85 | 1011.2 |
| 20260904135515 | 78 | 225 | 2.0 | 4.0 | 0.00 | 0.01 | 0.00 | 86 | 1011.0 |
| 20260904134515 | 77 | 225 | 2.0 | 4.0 | 0.00 | 0.01 | 0.00 | 87 | 1011.0 |
| 20260904133535 | 77 | 225 | 1.0 | 4.0 | 0.00 | 0.01 | 0.00 | 88 | 1011.1 |
| 20260904132515 | 76 | 203 | 2.0 | 3.0 | 0.00 | 0.01 | 0.00 | 89 | 1010.9 |
| 20260904131535 | 76 | 203 | 1.0 | 2.0 | 0.00 | 0.01 | 0.00 | 89 | 1010.9 |
| 20260904130515 | 75 | 0.0 | 2.0 | 0.00 | 0.01 | 0.00 | 89 | 1011.1 | |
| 20260904125515 | 74 | 0.0 | 0.0 | 0.00 | 0.01 | 0.00 | 91 | 1010.8 | |
| 20260904124515 | 73 | 0.0 | 0.0 | 0.00 | 0.01 | 0.00 | 92 | 1010.7 | |
| 20260904123515 | 72 | 0.0 | 2.0 | 0.00 | 0.01 | 0.00 | 92 | 1010.7 | |
| 20260904122515 | 71 | 0.0 | 2.0 | 0.00 | 0.01 | 0.00 | 92 | 1010.5 | |
| 20260904121537 | 71 | 0.0 | 2.0 | 0.00 | 0.01 | 0.00 | 92 | 1010.5 | |
| 20260904120517 | 70 | 0.0 | 1.0 | 0.00 | 0.01 | 0.00 | 92 | 1010.3 | |
| 20260904115517 | 70 | 0.0 | 1.0 | 0.00 | 0.01 | 0.00 | 92 | 1010.2 | |
| 20260904114537 | 70 | 0.0 | 2.0 | 0.00 | 0.01 | 0.00 | 91 | 1010.1 | |
| 20260904113537 | 71 | 0.0 | 2.0 | 0.00 | 0.02 | 0.00 | 91 | 1010.2 | |
| 20260904112517 | 71 | 0.0 | 1.0 | 0.00 | 0.02 | 0.00 | 91 | 1010.2 | |
| 20260904111517 | 71 | 0.0 | 1.0 | 0.00 | 0.03 | 0.00 | 91 | 1010.1 | |
| 20260904110517 | 71 | 0.0 | 2.0 | 0.00 | 0.10 | 0.00 | 91 | 1010.1 | |
| 20260904105517 | 71 | 0.0 | 2.0 | 0.00 | 0.13 | 0.00 | 91 | 1010.0 | |
| 20260904104517 | 72 | 0.0 | 2.0 | 0.00 | 0.15 | 0.00 | 91 | 1010.0 | |
| 20260904103517 | 72 | 0.0 | 2.0 | 0.00 | 0.16 | 0.00 | 91 | 1009.9 | |
| 20260904102517 | 72 | 225 | 1.0 | 2.0 | 0.00 | 0.16 | 0.00 | 91 | 1010.0 |
| 20260904101517 | 72 | 0.0 | 2.0 | 0.00 | 0.16 | 0.00 | 90 | 1009.9 | |
| 20260904100537 | 73 | 225 | 1.0 | 2.0 | 0.00 | 0.16 | 0.00 | 90 | 1009.8 |
| 20260904095517 | 73 | 0.0 | 0.0 | 0.00 | 0.23 | 0.00 | 89 | 1010.0 | |
| 20260904094517 | 73 | 0.0 | 0.0 | 0.00 | 0.29 | 0.00 | 89 | 1009.7 | |
| 20260904093517 | 74 | 0.0 | 2.0 | 0.00 | 0.29 | 0.00 | 89 | 1009.6 | |
| 20260904092537 | 74 | 0.0 | 2.0 | 0.00 | 0.29 | 0.00 | 89 | 1009.6 | |
| 20260904091557 | 75 | 0.0 | 1.0 | 0.00 | 0.29 | 0.00 | 88 | 1009.6 | |
| 20260904090517 | 75 | 0.0 | 2.0 | 0.00 | 0.29 | 0.00 | 88 | 1009.4 | |
| 20260904085517 | 75 | 0.0 | 2.0 | 0.00 | 0.29 | 0.00 | 89 | 1009.4 | |
| 20260904084517 | 75 | 0 | 1.0 | 2.0 | 0.00 | 0.29 | 0.00 | 89 | 1009.4 |
| 20260904083517 | 75 | 0 | 1.0 | 2.0 | 0.00 | 0.29 | 0.00 | 89 | 1009.3 |
| 20260904082517 | 76 | 0.0 | 1.0 | 0.00 | 0.29 | 0.00 | 89 | 1009.3 | |
| 20260904081517 | 76 | 0 | 1.0 | 2.0 | 0.00 | 0.29 | 0.00 | 89 | 1009.4 |
| 20260904080517 | 76 | 225 | 1.0 | 3.0 | 0.00 | 0.29 | 0.00 | 89 | 1009.4 |
| 20260904075517 | 76 | 0 | 2.0 | 4.0 | 0.00 | 0.29 | 0.00 | 89 | 1009.4 |
| 20260904074517 | 76 | 0 | 2.0 | 3.0 | 0.00 | 0.29 | 0.00 | 89 | 1009.4 |
| 20260904073516 | 76 | 203 | 1.0 | 2.0 | 0.00 | 0.29 | 0.00 | 89 | 1009.4 |
| 20260904072517 | 76 | 203 | 1.0 | 2.0 | 0.00 | 0.29 | 0.00 | 90 | 1009.5 |
| 20260904071516 | 76 | 0.0 | 1.0 | 0.00 | 0.29 | 0.00 | 90 | 1009.5 | |
| 20260904070517 | 76 | 203 | 1.0 | 2.0 | 0.00 | 0.29 | 0.00 | 90 | 1009.3 |
| 20260904065516 | 75 | 203 | 2.0 | 3.0 | 0.00 | 0.29 | 0.00 | 91 | 1009.4 |
| 20260904064517 | 75 | 203 | 2.0 | 3.0 | 0.00 | 0.29 | 0.00 | 91 | 1009.4 |
| 20260904063516 | 75 | 203 | 1.0 | 2.0 | 0.00 | 0.29 | 0.00 | 91 | 1009.5 |
| 20260904062616 | 75 | 180 | 1.0 | 3.0 | 0.00 | 0.29 | 0.00 | 91 | 1009.5 |
| 20260904061516 | 75 | 0.0 | 1.0 | 0.00 | 0.29 | 0.00 | 91 | 1009.5 | |
| 20260904060517 | 75 | 0.0 | 2.0 | 0.00 | 0.29 | 0.00 | 90 | 1009.5 | |
| 20260904055517 | 75 | 180 | 1.0 | 2.0 | 0.00 | 0.29 | 0.00 | 90 | 1009.4 |
| 20260904054516 | 75 | 180 | 1.0 | 2.0 | 0.00 | 0.29 | 0.00 | 90 | 1009.4 |
| 20260904053516 | 75 | 180 | 1.0 | 2.0 | 0.00 | 0.29 | 0.00 | 90 | 1009.3 |
| 20260904052516 | 75 | 180 | 1.0 | 2.0 | 0.00 | 0.29 | 0.00 | 90 | 1009.3 |
| 20260904051536 | 75 | 0.0 | 1.0 | 0.00 | 0.29 | 0.00 | 90 | 1009.2 | |
| 20260904050516 | 75 | 0.0 | 2.0 | 0.00 | 0.29 | 0.00 | 90 | 1009.2 | |
| 20260904045517 | 76 | 0 | 1.0 | 1.0 | 0.00 | 0.29 | 0.29 | 89 | 1009.2 |
| 20260904044517 | 76 | 180 | 1.0 | 1.0 | 0.00 | 0.29 | 0.29 | 89 | 1009.2 |
| 20260904043517 | 77 | 0 | 1.0 | 1.0 | 0.00 | 0.29 | 0.29 | 89 | 1009.1 |
| 20260904042517 | 77 | 0 | 1.0 | 2.0 | 0.00 | 0.29 | 0.29 | 89 | 1009.2 |
| 20260904041517 | 77 | 0.0 | 2.0 | 0.00 | 0.29 | 0.29 | 88 | 1009.1 | |
| 20260904040517 | 77 | 0.0 | 2.0 | 0.00 | 0.29 | 0.29 | 88 | 1009.0 | |
| 20260904035517 | 77 | 0.0 | 2.0 | 0.00 | 0.29 | 0.29 | 88 | 1009.0 | |
| 20260904034517 | 78 | 180 | 1.0 | 3.0 | 0.00 | 0.29 | 0.29 | 88 | 1009.0 |
| 20260904033517 | 78 | 180 | 2.0 | 2.0 | 0.00 | 0.29 | 0.29 | 87 | 1009.1 |
| 20260904032537 | 78 | 180 | 2.0 | 3.0 | 0.00 | 0.29 | 0.29 | 87 | 1009.1 |
| 20260904031517 | 78 | 180 | 2.0 | 3.0 | 0.00 | 0.29 | 0.29 | 86 | 1009.1 |
| 20260904030517 | 79 | 180 | 2.0 | 3.0 | 0.00 | 0.29 | 0.29 | 86 | 1008.9 |
| 20260904025517 | 79 | 203 | 2.0 | 5.0 | 0.00 | 0.29 | 0.29 | 86 | 1009.0 |
| 20260904024517 | 79 | 180 | 2.0 | 4.0 | 0.00 | 0.29 | 0.29 | 85 | 1008.9 |
| 20260904023517 | 79 | 180 | 1.0 | 3.0 | 0.00 | 0.29 | 0.29 | 84 | 1008.9 |
| 20260904022517 | 79 | 180 | 1.0 | 3.0 | 0.00 | 0.29 | 0.29 | 84 | 1009.0 |
| 20260904021517 | 79 | 180 | 3.0 | 6.0 | 0.00 | 0.29 | 0.29 | 84 | 1008.8 |
| 20260904020517 | 79 | 158 | 3.0 | 5.0 | 0.00 | 0.29 | 0.29 | 84 | 1008.7 |
| 20260904015517 | 79 | 180 | 2.0 | 5.0 | 0.00 | 0.29 | 0.29 | 84 | 1008.6 |
| 20260904014517 | 79 | 158 | 2.0 | 4.0 | 0.00 | 0.29 | 0.29 | 84 | 1008.5 |
| 20260904013517 | 79 | 158 | 2.0 | 4.0 | 0.00 | 0.29 | 0.29 | 84 | 1008.2 |
| 20260904012517 | 79 | 180 | 2.0 | 3.0 | 0.00 | 0.29 | 0.29 | 84 | 1007.9 |
| 20260904011517 | 79 | 180 | 1.0 | 3.0 | 0.00 | 0.29 | 0.29 | 84 | 1008.1 |
| 20260904010517 | 79 | 0.0 | 1.0 | 0.00 | 0.29 | 0.29 | 83 | 1008.1 | |
| 20260904005517 | 80 | 0.0 | 1.0 | 0.00 | 0.29 | 0.29 | 82 | 1008.0 | |
| 20260904004517 | 81 | 0.0 | 2.0 | 0.00 | 0.29 | 0.29 | 81 | 1008.1 | |
| 20260904003517 | 82 | 0.0 | 1.0 | 0.00 | 0.29 | 0.29 | 79 | 1008.0 | |
| 20260904002536 | 83 | 180 | 1.0 | 2.0 | 0.00 | 0.29 | 0.29 | 77 | 1008.1 |
| 20260904001517 | 83 | 180 | 2.0 | 3.0 | 0.00 | 0.29 | 0.29 | 75 | 1008.1 |
| 20260904000516 | 84 | 180 | 3.0 | 5.0 | 0.00 | 0.29 | 0.29 | 74 | 1008.0 |
| 20260903235516 | 85 | 0 | 5.0 | 8.0 | 0.00 | 0.29 | 0.29 | 72 | 1008.1 |
| 20260903234516 | 85 | 0 | 5.0 | 12.0 | 0.00 | 0.29 | 0.29 | 71 | 1008.1 |
| 20260903233516 | 85 | 0 | 4.0 | 7.0 | 0.00 | 0.29 | 0.29 | 72 | 1008.1 |
| 20260903232516 | 86 | 0 | 5.0 | 9.0 | 0.00 | 0.29 | 0.29 | 70 | 1008.3 |
| 20260903231517 | 86 | 0 | 5.0 | 11.0 | 0.00 | 0.29 | 0.29 | 70 | 1008.4 |
| 20260903230516 | 86 | 0 | 5.0 | 8.0 | 0.00 | 0.29 | 0.29 | 70 | 1008.2 |
| 20260903225517 | 86 | 0 | 6.0 | 10.0 | 0.00 | 0.29 | 0.29 | 70 | 1008.1 |
| 20260903224516 | 87 | 0 | 6.0 | 10.0 | 0.00 | 0.29 | 0.29 | 69 | 1007.9 |
| 20260903223516 | 87 | 0 | 5.0 | 8.0 | 0.00 | 0.29 | 0.29 | 69 | 1007.7 |
| 20260903222516 | 86 | 158 | 5.0 | 9.0 | 0.00 | 0.29 | 0.29 | 69 | 1007.2 |
| 20260903221516 | 87 | 158 | 5.0 | 9.0 | 0.00 | 0.29 | 0.29 | 68 | 1007.4 |
| 20260903220516 | 87 | 0 | 5.0 | 10.0 | 0.00 | 0.29 | 0.29 | 66 | 1007.6 |
| 20260903215516 | 87 | 0 | 5.0 | 9.0 | 0.00 | 0.29 | 0.29 | 67 | 1007.7 |
| 20260903214516 | 87 | 0 | 7.0 | 11.0 | 0.00 | 0.29 | 0.29 | 65 | 1008.0 |
| 20260903213516 | 87 | 0 | 7.0 | 12.0 | 0.00 | 0.29 | 0.29 | 65 | 1007.9 |
| 20260903212516 | 87 | 0 | 6.0 | 10.0 | 0.00 | 0.29 | 0.29 | 65 | 1008.2 |
| 20260903211516 | 87 | 0 | 7.0 | 11.0 | 0.00 | 0.29 | 0.29 | 63 | 1008.4 |
| 20260903210536 | 87 | 0 | 6.0 | 15.0 | 0.00 | 0.29 | 0.29 | 66 | 1008.3 |
| 20260903205516 | 87 | 158 | 6.0 | 10.0 | 0.00 | 0.29 | 0.29 | 67 | 1008.2 |
| 20260903204516 | 87 | 158 | 6.0 | 12.0 | 0.00 | 0.29 | 0.29 | 66 | 1008.1 |
| 20260903203516 | 87 | 0 | 6.0 | 13.0 | 0.00 | 0.29 | 0.29 | 67 | 1008.3 |
| 20260903202516 | 87 | 0 | 6.0 | 11.0 | 0.00 | 0.29 | 0.29 | 65 | 1008.4 |
| 20260903201517 | 86 | 0 | 8.0 | 13.0 | 0.00 | 0.29 | 0.29 | 66 | 1008.5 |
| 20260903200516 | 87 | 180 | 6.0 | 13.0 | 0.00 | 0.29 | 0.29 | 68 | 1008.5 |
| 20260903195536 | 87 | 180 | 8.0 | 14.0 | 0.00 | 0.29 | 0.29 | 67 | 1008.4 |
| 20260903194516 | 87 | 158 | 7.0 | 11.0 | 0.00 | 0.29 | 0.29 | 67 | 1008.7 |
| 20260903193516 | 86 | 180 | 8.0 | 13.0 | 0.00 | 0.29 | 0.29 | 67 | 1009.2 |
| 20260903192516 | 86 | 0 | 6.0 | 13.0 | 0.00 | 0.29 | 0.29 | 67 | 1009.2 |
| 20260903191516 | 86 | 158 | 8.0 | 15.0 | 0.00 | 0.29 | 0.29 | 66 | 1008.9 |
| 20260903190516 | 86 | 180 | 6.0 | 10.0 | 0.00 | 0.29 | 0.29 | 68 | 1009.0 |
| 20260903185517 | 85 | 0 | 8.0 | 14.0 | 0.00 | 0.29 | 0.29 | 67 | 1008.8 |
| 20260903184516 | 86 | 180 | 7.0 | 14.0 | 0.00 | 0.29 | 0.29 | 67 | 1008.9 |
| 20260903183516 | 86 | 203 | 7.0 | 13.0 | 0.00 | 0.29 | 0.29 | 67 | 1009.2 |
| 20260903182536 | 86 | 180 | 6.0 | 12.0 | 0.00 | 0.29 | 0.29 | 66 | 1009.4 |
| 20260903181516 | 86 | 225 | 7.0 | 16.0 | 0.00 | 0.29 | 0.29 | 65 | 1009.3 |
| 20260903180516 | 86 | 203 | 7.0 | 14.0 | 0.00 | 0.29 | 0.29 | 65 | 1009.4 |
| 20260903175516 | 86 | 180 | 5.0 | 9.0 | 0.00 | 0.29 | 0.29 | 67 | 1009.5 |
| 20260903174516 | 85 | 203 | 8.0 | 13.0 | 0.00 | 0.29 | 0.29 | 66 | 1009.5 |
| 20260903173516 | 85 | 203 | 6.0 | 10.0 | 0.00 | 0.29 | 0.29 | 66 | 1009.5 |
| 20260903172536 | 84 | 203 | 8.0 | 15.0 | 0.00 | 0.29 | 0.29 | 66 | 1009.6 |
| 20260903171536 | 84 | 203 | 9.0 | 14.0 | 0.00 | 0.29 | 0.29 | 69 | 1009.5 |
| 20260903170516 | 84 | 180 | 9.0 | 14.0 | 0.00 | 0.29 | 0.29 | 67 | 1009.6 |
| 20260903165516 | 84 | 203 | 7.0 | 17.0 | 0.00 | 0.29 | 0.29 | 67 | 1009.7 |
| 20260903164516 | 84 | 180 | 10.0 | 21.0 | 0.00 | 0.29 | 0.29 | 66 | 1009.8 |
| 20260903163516 | 84 | 180 | 7.0 | 12.0 | 0.01 | 0.29 | 0.29 | 67 | 1010.1 |
| 20260903162536 | 84 | 180 | 7.0 | 12.0 | 0.01 | 0.29 | 0.29 | 68 | 1010.2 |
| 20260903161516 | 84 | 180 | 6.0 | 11.0 | 0.01 | 0.29 | 0.29 | 69 | 1010.3 |
| 20260903160516 | 83 | 158 | 6.0 | 10.0 | 0.01 | 0.29 | 0.29 | 72 | 1010.1 |
| 20260903155516 | 82 | 158 | 7.0 | 12.0 | 0.01 | 0.29 | 0.29 | 72 | 1009.9 |
| 20260903154535 | 81 | 158 | 6.0 | 10.0 | 0.01 | 0.29 | 0.29 | 73 | 1010.0 |
| 20260903153516 | 80 | 180 | 7.0 | 12.0 | 0.00 | 0.28 | 0.28 | 72 | 1010.1 |
| 20260903152516 | 79 | 158 | 6.0 | 13.0 | 0.00 | 0.28 | 0.28 | 74 | 1010.2 |